Regional Weather Roundup
Issued by NWS

Home | Current Version | Previous Version | Graphics & Text | Print | Product List | Glossary On
Versions: 1 2 3 4 5 6 7 8 9 10 11 12 13 14 15 16 17 18 19 20 21 22 23 24 25 26 27 28 29 30 31 32 33 34 35 36 37 38 39 40 41 42 43 44 45 46 47 48 49 50
000
ASUS43 KLOT 300106
RWRIL

ILLINOIS REGIONAL WEATHER ROUNDUP
NATIONAL WEATHER SERVICE CHICAGO/ROMEOVILLE IL
800 PM CDT MON SEP 29 2014

NOTE: "FAIR" INDICATES FEW OR NO CLOUDS BELOW 12,000 FEET WITH NO
SIGNIFICANT WEATHER AND/OR OBSTRUCTIONS TO VISIBILITY.

* THESE STATIONS ARE NOT UNDER NWS QUALITY CONTROL. THEY ALSO MAY NOT
  REPORT WEATHER SUCH AS PRECIPITATION OR FOG.

ILZ001-002-007-009-015-016-024-300200-
NORTHWEST ILLINOIS

CITY           SKY/WX    TMP DP  RH WIND       PRES   REMARKS
MOLINE         NOT AVBL
SAVANNA*       CLOUDY    70  60  70 N18       29.94R
$$

ILZ003-004-008-010-011-017-018-300200-
NORTH CENTRAL ILLINOIS

CITY           SKY/WX    TMP DP  RH WIND       PRES   REMARKS
ROCKFORD       PTCLDY    63  55  75 NE14      30.00R
FREEPORT*      MOCLDY    63  58  84 NE13      30.01R
ROCHELLE*      MOCLDY    66  57  72 CALM      29.95R
DE KALB*       CLEAR     59  55  87 NE15G21   29.98R
PERU*          CLEAR     72  57  59 NW5       29.94S
$$

ILZ005-006-012>014-019>023-300200-
NORTHEAST ILLINOIS

CITY           SKY/WX    TMP DP  RH WIND       PRES   REMARKS
CHICAGO-OHARE  CLOUDY    57  53  86 N18G26    29.99R
CHICAGO-MIDWAY CLOUDY    62  57  83 NE16G28   29.98R
AURORA         CLEAR     64  57  78 NE18G26   29.96R
LANSING*       CLOUDY    62  59  91 N16G24    29.97R
JOLIET*        MOCLDY    66  59  77 NE10G20   29.95R
WAUKEGAN       NOT AVBL
DUPAGE AIRPORT CLOUDY    60  55  83 NE12      29.98R
KANKAKEE*      PTCLDY    65  58  79 CALM      29.93S
WHEELING       CLOUDY    58  53  84 NE13G23   30.01R
MORRIS*        PTCLDY    69  59  70 W3        29.92S
ROMEOVILLE*    PTCLDY    62  57  82 NE15G21   29.96R
NORTHERLY ISL    N/A     59  56  89 N20         N/A
$$

LMZ740>746-300200-
SOUTHERN LAKE MICHIGAN

STATION/POSITION SKY/WX   TEMP    WIND        PRES    VSBY  WAVE
                          AIR SEA DIR/SP/G                  HT/PER
                          (F)     (DEG/KT/KT) (MB)    (MI)  (FT/S)
SOUTHERN BUOY              56 63  350/ 25/ 31 1015.0R         7/ 6
WAUKEGAN HARBOR                    20/ 23/ 27   N/A
HARRISON CRIB              58     360/ 24/ 28   N/A
BURNHAM HARBOR             59     360/ 18/ 22   N/A
CALUMET HARBOR             60     340/ 15/ 21 1014.0R
MICHIGAN CITY                      10/ 22/ 25   N/A
MICHIGAN CITY 6N           62 66   20/ 17/ 23   N/A           3/ 2
ST. JOSEPH                 60 64   10/ 19/ 25   N/A           3/ 2
$$

ILZ025>027-034>036-040-047-049-050-058-095>099-300200-
WEST-CENTRAL ILLINOIS

CITY           SKY/WX    TMP DP  RH WIND       PRES   REMARKS
QUINCY         CLEAR     73  58  59 CALM      29.96S
GALESBURG*     CLEAR     69  58  69 CALM      29.95S
MACOMB*        CLEAR     65  57  74 CALM      29.97F
JACKSONVILLE*  CLEAR     69  59  71 CALM      29.97S
PITTSFIELD*    CLEAR     68  59  73 CALM      29.97S
$$

ILZ028>032-037-038-041>044-048-051>054-059>061-300200-
CENTRAL ILLINOIS

CITY           SKY/WX    TMP DP  RH WIND       PRES   REMARKS
PONTIAC        PTCLDY    68  57  68 CALM      29.94S
BLOOMINGTON    CLEAR     72  59  63 W3          N/A
DECATUR        CLEAR     71  58  63 CALM      29.96R
PEORIA         CLEAR     71  60  68 CALM      29.95S
LACON*         CLEAR     65  58  78 CALM      29.94R
LINCOLN*       CLEAR     70  58  67 CALM      29.92S
SPRINGFIELD    CLEAR     66  59  78 NW3       29.96R
TAYLORVILLE    CLEAR     66  59  77 CALM      29.96R
$$

ILZ033-039-045-046-055>057-062-063-300200-
EAST-CENTRAL ILLINOIS

CITY           SKY/WX    TMP DP  RH WIND       PRES   REMARKS
CHAMPAIGN      CLEAR     70  54  56 CALM      29.95S
DANVILLE*      CLEAR     64  57  78 CALM      29.92S
RANTOUL*       CLEAR     72  53  51 W6        29.96S
MATTOON        PTCLDY    67  60  78 CALM      29.95R
PARIS*         CLEAR     62  58  88 CALM      29.96R
$$

ILZ079-100>102-300200-
SOUTHWEST ILLINOIS

CITY           SKY/WX    TMP DP  RH WIND       PRES   REMARKS
ALTON          CLEAR     68  57  68 W6        29.96S
BELLEVILLE     CLEAR     72  60  66 W1        29.95S
CAHOKIA*       CLEAR     67  60  78 CALM      29.95S
SPARTA*        CLEAR     70  58  66 CALM      29.97R
$$

ILZ064>066-069>071-074>076-080>082-084>086-088>090-092>094-300200-
SOUTH-CENTRAL ILLINOIS

CITY           SKY/WX    TMP DP  RH WIND       PRES   REMARKS
CARBONDALE     CLEAR     65  59  81 CALM      29.96R
CAIRO*         CLEAR     66  59  80 CALM      29.95R
EFFINGHAM*     HVY RAIN  66  57  72 CALM      29.95S
MARION         CLEAR     66  57  72 CALM      29.97R
CENTRALIA*     CLEAR     65  58  77 CALM      29.96S
SALEM*         CLEAR     69  61  75 CALM      29.96S
METROPOLIS*    CLEAR     65  59  81 CALM      29.95R
$$

ILZ067-068-072-073-078-083-087-091-300200-
SOUTHEAST ILLINOIS

CITY           SKY/WX    TMP DP  RH WIND       PRES   REMARKS
LAWRENCEVILLE  CLEAR     69  58  67 CALM      29.95R
FLORA*         CLEAR     64  56  77 CALM      29.95S
FAIRFIELD*     CLEAR     64  61  88 CALM      29.95R
HARRISBURG*    CLEAR     65  59  81 CALM      29.96S
ROBINSON*      CLEAR     66  60  80 CALM      29.95S
CARMI*         CLEAR     67  61  79 CALM      29.94S
$$

ABBREVIATIONS USED IN REMARKS
   TC - TEMPERATURE IN CELSIUS
  WCI - WIND CHILL INDEX
   HX - HEAT INDEX
  VSB - VISIBILITY
$$



USA.gov is the U.S. government's official web portal to all federal, state and local government web resources and services.